Vertical_Velocity
-1 -1 -1 -1 -0 1 0 1 1 -0 -0 -1 -2 -1 -1 1 0 -1 1 1 -2 -1 -2 -1 -0 1 1 1 0 0 -0 2 -0
-2 -2 -0 -1 -1 -1 -1 -2 -2 -1 -0 -0 -0 1 0 -1 -1 1 -0 0 1 2 2 -0 -1 -2 1 1 5 -1 3 3 1
-0 -1 -1 -1 -1 -1 -2 -2 -1 -1 -0 -1 -1 -0 -1 1 0 -1 1 -1 -0 0 1 2 1 0 -1 -1 -1 4 1 -1 0
-2 0 -1 -0 -1 -1 -2 -1 -1 -1 -2 -2 -1 1 1 1 0 -0 -1 -1 -1 0 0 1 1 2 0 -0 -1 -1 -0 6 -2
-1 -2 -1 -0 -0 -1 -2 -1 -0 -2 -2 -3 -1 -0 -0 1 1 1 0 0 1 -0 -0 -1 0 1 -0 0 1 -1 0 -0 1
-4 -0 -0 -0 -1 0 1 1 1 2 2 -3 -1 -1 0 -1 1 1 0 1 1 1 0 1 -0 1 -1 -1 -1 0 -0 -2 -1
2 -1 -2 1 -0 -1 -1 -1 -1 -1 0 1 -1 -3 -1 1 1 -1 0 0 0 0 1 1 0 0 0 -0 -1 -1 -0 0 -0
-1 -1 -3 -3 -3 -2 -1 -1 -1 -1 -4 1 3 -1 -1 1 1 1 -1 -1 -1 1 0 -0 -1 -1 1 -0 -1 -2 1 -0 1
-0 0 -1 -2 -1 -2 -2 -2 0 -1 -1 -2 2 -2 0 0 0 1 1 -0 1 1 2 1 1 1 0 -1 -1 -1 -0 -1 -3
-0 0 -2 -1 -3 -0 -2 -1 -2 -0 -2 -4 0 -2 -2 -1 -0 2 1 1 1 2 1 1 -0 1 2 -0 3 -1 -4 -4 -1
0 0 -1 -1 -1 -0 -2 -3 -3 -1 -1 -2 1 -1 -1 -2 -2 -2 1 1 1 2 1 -0 1 1 -2 -3 -4 -2 3 3 2
0 -0 -1 -3 -0 -1 0 -2 -2 -1 -3 0 -2 1 -1 -1 1 -2 0 -2 -2 -1 -1 -0 -0 -2 -4 1 3 3 2 -2 -1
-1 -0 -1 -0 -0 -3 -1 -4 -1 -3 -4 0 0 -0 -0 -1 2 1 -2 -1 -1 -3 -1 1 -2 -0 -0 -0 -2 -3 -0 -1 -5
-0 -0 -1 -2 -2 -3 -1 -2 -2 -5 -2 -0 -3 -1 -2 -1 1 -0 -1 -1 -1 -1 -0 -2 -1 -1 -1 -3 1 -0 -10 5 1
-1 0 -1 0 -2 1 0 -1 0 -3 -0 -2 -3 -2 -2 -2 -2 0 -0 -2 -2 -1 0 -2 -1 -1 -5 -3 -0 -2 3 12 -9
-1 -1 -1 -1 -3 -2 1 -0 -1 -2 -1 -2 0 -2 1 0 -2 0 0 1 2 2 1 -0 -0 2 -1 -4 -1 -7 9 5 -2
1 0 -1 -0 0 -1 0 0 -1 -1 -3 -1 -0 1 2 2 1 1 -1 -2 -2 -1 1 3 1 2 -4 -3 -2 -0 -3 11 1
2 2 -1 -1 0 -2 -1 0 -2 -3 -1 -1 -1 -1 0 -2 1 1 0 -0 -1 -3 -2 -3 2 6 2 -2 -5 -2 -2 -10 9
-0 -1 -0 1 -1 -2 -1 -1 -1 -2 -2 -1 -0 0 -1 -2 -4 2 2 1 -1 -1 -0 -0 -2 0 -1 1 0 -1 -4 -0 -6
1 -1 -2 -1 0 -0 -0 -1 -1 -2 -1 -1 -1 -1 -1 2 2 -4 -4 1 1 -3 -1 -1 -2 -1 -5 -0 0 3 0 -3 -2
Height
1536 1536 1535 1534 1533 1533 1531 1530 1529 1528 1527 1526 1526 1525 1525 1524 1524 1524 1525 1525 1524 1525 1525 1525 1526 1526 1526 1526 1526 1527 1527 1528 1529
1536 1535 1535 1534 1533 1532 1531 1530 1529 1528 1527 1526 1525 1524 1523 1523 1522 1522 1522 1522 1522 1522 1522 1522 1523 1523 1524 1524 1524 1524 1525 1526 1528
1536 1535 1534 1534 1533 1532 1531 1530 1528 1527 1526 1524 1523 1522 1522 1521 1520 1520 1519 1519 1519 1519 1519 1518 1519 1520 1521 1521 1522 1522 1523 1524 1525
1536 1535 1535 1534 1533 1531 1530 1529 1527 1526 1525 1523 1522 1520 1519 1519 1518 1518 1517 1517 1517 1517 1516 1516 1516 1517 1517 1518 1519 1520 1520 1520 1522
1536 1535 1534 1534 1532 1531 1530 1528 1527 1525 1523 1522 1520 1519 1518 1517 1516 1515 1514 1515 1515 1514 1514 1514 1514 1514 1514 1514 1515 1516 1516 1517 1519
1535 1535 1534 1533 1532 1531 1529 1527 1526 1525 1523 1521 1519 1517 1516 1515 1514 1513 1512 1512 1512 1512 1512 1512 1511 1511 1511 1512 1512 1512 1512 1513 1515
1536 1535 1534 1533 1531 1529 1528 1526 1525 1523 1522 1519 1517 1516 1515 1514 1513 1511 1511 1510 1510 1510 1510 1509 1509 1509 1509 1509 1509 1509 1509 1510 1511
1535 1534 1533 1532 1530 1529 1528 1526 1525 1523 1521 1519 1517 1515 1514 1512 1511 1510 1509 1509 1508 1508 1508 1507 1508 1507 1507 1506 1506 1507 1506 1506 1507
1536 1535 1533 1532 1530 1529 1527 1525 1524 1522 1520 1518 1516 1514 1513 1511 1510 1509 1509 1508 1507 1507 1506 1506 1506 1506 1505 1505 1504 1504 1504 1504 1504
1535 1533 1532 1531 1529 1528 1526 1524 1523 1521 1519 1517 1515 1513 1512 1510 1509 1509 1508 1508 1507 1506 1505 1505 1504 1504 1504 1504 1503 1502 1501 1501 1501
1534 1532 1531 1530 1528 1526 1524 1523 1521 1520 1518 1516 1514 1513 1511 1510 1509 1509 1509 1507 1507 1506 1504 1503 1503 1502 1502 1501 1500 1499 1498 1498 1497
1532 1531 1530 1528 1527 1525 1523 1522 1520 1518 1517 1515 1513 1512 1511 1510 1510 1509 1508 1507 1506 1505 1504 1502 1501 1500 1501 1500 1498 1496 1495 1495 1494
1531 1529 1528 1527 1525 1523 1522 1520 1519 1518 1516 1514 1512 1512 1511 1510 1510 1508 1507 1506 1505 1504 1503 1502 1501 1499 1499 1498 1496 1494 1493 1492 1491
1529 1528 1527 1525 1524 1522 1521 1520 1518 1516 1515 1513 1512 1512 1511 1510 1510 1509 1507 1506 1505 1504 1503 1502 1501 1499 1498 1497 1496 1494 1492 1488 1489
1528 1527 1525 1524 1523 1522 1520 1519 1517 1516 1514 1512 1511 1511 1511 1510 1509 1509 1507 1506 1505 1504 1502 1501 1501 1499 1497 1496 1495 1494 1492 1489 1488
1526 1525 1524 1523 1521 1521 1519 1518 1516 1515 1515 1512 1511 1510 1510 1509 1509 1508 1507 1506 1505 1503 1502 1501 1500 1498 1497 1495 1494 1494 1492 1490 1489
1525 1524 1523 1522 1521 1520 1519 1517 1516 1516 1514 1513 1511 1510 1511 1509 1508 1508 1506 1505 1504 1502 1501 1500 1499 1498 1495 1494 1494 1492 1492 1491 1489
1524 1523 1522 1521 1520 1519 1518 1517 1515 1515 1514 1514 1514 1512 1511 1509 1508 1507 1506 1505 1503 1501 1499 1498 1497 1497 1494 1493 1493 1492 1492 1491 1489
1523 1523 1521 1519 1518 1518 1517 1516 1515 1514 1514 1514 1513 1513 1512 1510 1508 1507 1505 1504 1502 1500 1498 1496 1495 1495 1494 1492 1492 1491 1491 1490 1488
1521 1521 1520 1519 1518 1516 1515 1515 1514 1514 1513 1512 1512 1511 1510 1510 1509 1505 1504 1503 1501 1499 1497 1495 1494 1494 1493 1491 1491 1490 1489 1489 1487